| time (UTC) | temp F | wind direction | speed knots | gust knots | rain 1hr in | rain 24hr in | rain mn in | humidity % | barometer mb |
| 20260504050703 | 65 | 177 | 0.0 | 0.0 | 0.00 | 0.00 | 0.00 | 73 | 1017.0 |
| 20260504050203 | 65 | 183 | 0.0 | 1.7 | 0.00 | 0.00 | 0.00 | 73 | 1017.0 |
| 20260504045703 | 65 | 187 | 0.0 | 0.0 | 0.00 | 0.00 | 0.00 | 73 | 1017.1 |
| 20260504044203 | 65 | 187 | 0.0 | 2.6 | 0.00 | 0.00 | 0.00 | 72 | 1017.1 |
| 20260504043703 | 65 | 185 | 0.0 | 2.6 | 0.00 | 0.00 | 0.00 | 72 | 1017.2 |
| 20260504043203 | 65 | 173 | 0.0 | 1.7 | 0.00 | 0.00 | 0.00 | 72 | 1017.3 |
| 20260504042703 | 65 | 165 | 0.0 | 0.0 | 0.00 | 0.00 | 0.00 | 72 | 1017.3 |
| 20260504042204 | 66 | 165 | 0.0 | 0.0 | 0.00 | 0.00 | 0.00 | 73 | 1017.2 |
| 20260504041703 | 66 | 165 | 0.0 | 0.0 | 0.00 | 0.00 | 0.00 | 72 | 1017.2 |
| 20260504041203 | 66 | 165 | 0.0 | 0.0 | 0.00 | 0.00 | 0.00 | 72 | 1017.2 |
| 20260504040704 | 66 | 167 | 0.0 | 0.0 | 0.00 | 0.00 | 0.00 | 72 | 1017.3 |
| 20260504040204 | 66 | 167 | 0.0 | 0.0 | 0.00 | 0.00 | 0.00 | 72 | 1017.3 |
| 20260504035703 | 66 | 167 | 0.0 | 0.0 | 0.00 | 0.00 | 0.00 | 71 | 1017.4 |
| 20260504034204 | 66 | 167 | 0.0 | 0.0 | 0.00 | 0.00 | 0.00 | 70 | 1017.3 |
| 20260504033703 | 67 | 167 | 0.0 | 2.6 | 0.00 | 0.00 | 0.00 | 69 | 1017.3 |
| 20260504033204 | 67 | 191 | 0.0 | 0.9 | 0.00 | 0.00 | 0.00 | 69 | 1017.3 |
| 20260504032703 | 67 | 191 | 0.0 | 0.9 | 0.00 | 0.00 | 0.00 | 68 | 1017.3 |
| 20260504032203 | 67 | 191 | 0.0 | 2.6 | 0.00 | 0.00 | 0.00 | 68 | 1017.3 |
| 20260504031704 | 67 | 164 | 0.0 | 0.0 | 0.00 | 0.00 | 0.00 | 67 | 1017.2 |
| 20260504030203 | 67 | 164 | 0.0 | 0.0 | 0.00 | 0.00 | 0.00 | 66 | 1017.1 |
| 20260504025703 | 67 | 164 | 0.0 | 0.0 | 0.00 | 0.00 | 0.00 | 66 | 1017.0 |
| 20260504025203 | 67 | 164 | 0.0 | 0.0 | 0.00 | 0.00 | 0.00 | 66 | 1017.0 |
| 20260504024707 | 66 | 139 | 0.0 | 0.0 | 0.00 | 0.00 | 0.00 | 66 | 1017.0 |
| 20260504024203 | 66 | 139 | 0.0 | 0.0 | 0.00 | 0.00 | 0.00 | 65 | 1017.0 |
| 20260504023703 | 66 | 139 | 0.0 | 0.0 | 0.00 | 0.00 | 0.00 | 65 | 1017.0 |
| 20260504023203 | 67 | 139 | 0.0 | 0.0 | 0.00 | 0.00 | 0.00 | 67 | 1017.1 |
| 20260504022203 | 67 | 139 | 0.0 | 0.0 | 0.00 | 0.00 | 0.00 | 66 | 1017.0 |
| 20260504021703 | 68 | 139 | 0.0 | 0.0 | 0.00 | 0.00 | 0.00 | 65 | 1016.8 |
| 20260504021206 | 68 | 139 | 0.0 | 0.0 | 0.00 | 0.00 | 0.00 | 64 | 1016.7 |
| 20260504015704 | 69 | 139 | 0.0 | 0.0 | 0.00 | 0.00 | 0.00 | 61 | 1016.3 |
| 20260504015204 | 69 | 139 | 0.0 | 0.0 | 0.00 | 0.00 | 0.00 | 61 | 1016.2 |
| 20260504014704 | 69 | 139 | 0.0 | 0.0 | 0.00 | 0.00 | 0.00 | 60 | 1016.2 |
| 20260504014204 | 70 | 139 | 0.0 | 0.0 | 0.00 | 0.00 | 0.00 | 59 | 1016.2 |
| 20260504013703 | 70 | 139 | 0.0 | 0.0 | 0.00 | 0.00 | 0.00 | 59 | 1016.2 |
| 20260504013203 | 70 | 139 | 0.0 | 0.0 | 0.00 | 0.00 | 0.00 | 57 | 1016.2 |
| 20260504012703 | 71 | 139 | 0.0 | 0.0 | 0.00 | 0.00 | 0.00 | 58 | 1016.1 |
| 20260504011703 | 72 | 139 | 0.0 | 0.0 | 0.00 | 0.00 | 0.00 | 54 | 1016.2 |
| 20260504010703 | 72 | 139 | 0.0 | 0.0 | 0.00 | 0.00 | 0.00 | 55 | 1016.1 |
| 20260504010203 | 73 | 139 | 0.0 | 0.0 | 0.00 | 0.00 | 0.00 | 54 | 1016.1 |
| 20260504005704 | 73 | 139 | 0.0 | 0.0 | 0.00 | 0.00 | 0.00 | 52 | 1016.1 |
| 20260504005204 | 74 | 139 | 0.0 | 0.0 | 0.00 | 0.00 | 0.00 | 52 | 1016.1 |
| 20260504004704 | 74 | 139 | 0.0 | 0.0 | 0.00 | 0.00 | 0.00 | 51 | 1016.1 |
| 20260504004203 | 74 | 139 | 0.0 | 0.0 | 0.00 | 0.00 | 0.00 | 50 | 1016.1 |
| 20260504003703 | 75 | 139 | 0.0 | 0.0 | 0.00 | 0.00 | 0.00 | 47 | 1016.1 |
| 20260504002704 | 76 | 139 | 0.0 | 0.0 | 0.00 | 0.00 | 0.00 | 45 | 1016.4 |
| 20260504002204 | 76 | 139 | 0.0 | 0.0 | 0.00 | 0.00 | 0.00 | 45 | 1016.5 |
| 20260504001704 | 76 | 139 | 0.0 | 0.0 | 0.00 | 0.00 | 0.00 | 43 | 1016.4 |
| 20260504001204 | 76 | 139 | 0.0 | 0.0 | 0.00 | 0.00 | 0.00 | 44 | 1016.5 |
| 20260504000703 | 77 | 139 | 0.0 | 0.0 | 0.00 | 0.00 | 0.00 | 44 | 1016.6 |
| 20260504000204 | 77 | 139 | 0.0 | 0.0 | 0.00 | 0.00 | 0.00 | 44 | 1016.7 |
| 20260503235703 | 77 | 139 | 0.0 | 0.0 | 0.00 | 0.00 | 0.00 | 43 | 1016.7 |
| 20260503235203 | 77 | 139 | 0.0 | 0.0 | 0.00 | 0.00 | 0.00 | 43 | 1016.6 |
| 20260503234704 | 77 | 139 | 0.0 | 0.0 | 0.00 | 0.00 | 0.00 | 44 | 1016.6 |
| 20260503233703 | 77 | 139 | 0.0 | 0.0 | 0.00 | 0.00 | 0.00 | 42 | 1016.7 |
| 20260503233204 | 77 | 130 | 0.0 | 0.0 | 0.00 | 0.00 | 0.00 | 41 | 1016.7 |
| 20260503232704 | 77 | 130 | 0.0 | 0.0 | 0.00 | 0.00 | 0.00 | 40 | 1016.8 |
| 20260503231704 | 78 | 130 | 0.0 | 2.6 | 0.00 | 0.00 | 0.00 | 42 | 1016.5 |
| 20260503231203 | 78 | 133 | 0.9 | 2.6 | 0.00 | 0.00 | 0.00 | 39 | 1016.6 |
| 20260503230204 | 78 | 112 | 0.0 | 1.7 | 0.00 | 0.00 | 0.00 | 39 | 1016.6 |
| 20260503224203 | 79 | 163 | 1.7 | 2.6 | 0.00 | 0.00 | 0.00 | 38 | 1017.1 |
| 20260503223704 | 79 | 159 | 0.9 | 4.3 | 0.00 | 0.00 | 0.00 | 40 | 1017.2 |
| 20260503223204 | 79 | 193 | 0.9 | 2.6 | 0.00 | 0.00 | 0.00 | 39 | 1017.1 |
| 20260503222704 | 79 | 114 | 1.7 | 4.3 | 0.00 | 0.00 | 0.00 | 38 | 1017.2 |
| 20260503222204 | 80 | 129 | 2.6 | 5.2 | 0.00 | 0.00 | 0.00 | 39 | 1017.2 |
| 20260503221704 | 80 | 112 | 0.0 | 0.0 | 0.00 | 0.00 | 0.00 | 38 | 1017.3 |
| 20260503221203 | 80 | 171 | 1.7 | 4.3 | 0.00 | 0.00 | 0.00 | 38 | 1017.4 |
| 20260503220703 | 80 | 123 | 0.0 | 1.7 | 0.00 | 0.00 | 0.00 | 39 | 1017.6 |
| 20260503215703 | 80 | 141 | 0.9 | 2.6 | 0.00 | 0.00 | 0.00 | 42 | 1017.5 |
| 20260503215203 | 80 | 126 | 0.0 | 1.7 | 0.00 | 0.00 | 0.00 | 36 | 1017.6 |
| 20260503214703 | 80 | 113 | 1.7 | 2.6 | 0.00 | 0.00 | 0.00 | 38 | 1017.7 |
| 20260503214203 | 80 | 116 | 0.9 | 5.2 | 0.00 | 0.00 | 0.00 | 37 | 1017.7 |
| 20260503213704 | 79 | 189 | 0.9 | 4.3 | 0.00 | 0.00 | 0.00 | 38 | 1017.9 |
| 20260503213204 | 79 | 109 | 0.9 | 2.6 | 0.00 | 0.00 | 0.00 | 38 | 1018.0 |
| 20260503212704 | 79 | 130 | 1.7 | 4.3 | 0.00 | 0.00 | 0.00 | 39 | 1018.1 |
| 20260503212204 | 79 | 124 | 0.9 | 5.2 | 0.00 | 0.00 | 0.00 | 38 | 1018.2 |
| 20260503211704 | 79 | 83 | 1.7 | 5.2 | 0.00 | 0.00 | 0.00 | 37 | 1018.3 |
| 20260503211204 | 79 | 110 | 2.6 | 6.1 | 0.00 | 0.00 | 0.00 | 38 | 1018.4 |
| 20260503210703 | 80 | 122 | 0.9 | 2.6 | 0.00 | 0.00 | 0.00 | 39 | 1018.6 |
| 20260503210204 | 79 | 161 | 1.7 | 5.2 | 0.00 | 0.00 | 0.00 | 40 | 1018.5 |
| 20260503205704 | 80 | 116 | 0.9 | 2.6 | 0.00 | 0.00 | 0.00 | 40 | 1018.5 |
| 20260503205204 | 80 | 144 | 1.7 | 2.6 | 0.00 | 0.00 | 0.00 | 38 | 1018.7 |
| 20260503204704 | 80 | 150 | 0.0 | 0.0 | 0.00 | 0.00 | 0.00 | 40 | 1018.8 |
| 20260503203703 | 80 | 122 | 1.7 | 2.6 | 0.00 | 0.00 | 0.00 | 39 | 1019.1 |
| 20260503203204 | 81 | 172 | 1.7 | 5.2 | 0.00 | 0.00 | 0.00 | 38 | 1019.1 |
| 20260503202203 | 80 | 187 | 0.9 | 2.6 | 0.00 | 0.00 | 0.00 | 37 | 1019.2 |
| 20260503201704 | 80 | 195 | 1.7 | 4.3 | 0.00 | 0.00 | 0.00 | 37 | 1019.2 |
| 20260503201204 | 80 | 183 | 2.6 | 5.2 | 0.00 | 0.00 | 0.00 | 37 | 1019.4 |
| 20260503200703 | 80 | 182 | 1.7 | 6.1 | 0.00 | 0.00 | 0.00 | 39 | 1019.5 |
| 20260503200203 | 80 | 192 | 0.9 | 2.6 | 0.00 | 0.00 | 0.00 | 39 | 1019.6 |
| 20260503195703 | 80 | 113 | 1.7 | 5.2 | 0.00 | 0.00 | 0.00 | 39 | 1019.6 |
| 20260503195203 | 80 | 117 | 0.9 | 2.6 | 0.00 | 0.00 | 0.00 | 39 | 1019.6 |
| 20260503194703 | 80 | 178 | 0.9 | 4.3 | 0.00 | 0.00 | 0.00 | 39 | 1019.7 |
| 20260503193703 | 80 | 186 | 0.0 | 5.2 | 0.00 | 0.00 | 0.00 | 40 | 1019.9 |
| 20260503193203 | 80 | 163 | 1.7 | 4.3 | 0.00 | 0.00 | 0.00 | 39 | 1019.9 |
| 20260503192704 | 80 | 191 | 1.7 | 6.1 | 0.00 | 0.00 | 0.00 | 39 | 1019.9 |
| 20260503191704 | 80 | 127 | 0.9 | 2.6 | 0.00 | 0.00 | 0.00 | 40 | 1020.2 |
| 20260503191203 | 79 | 193 | 0.9 | 6.1 | 0.00 | 0.00 | 0.00 | 41 | 1020.3 |
| 20260503190704 | 79 | 180 | 1.7 | 2.6 | 0.00 | 0.00 | 0.00 | 38 | 1020.4 |
| 20260503190203 | 79 | 161 | 0.9 | 4.3 | 0.00 | 0.00 | 0.00 | 39 | 1020.5 |
| 20260503185703 | 79 | 139 | 1.7 | 6.1 | 0.00 | 0.00 | 0.00 | 40 | 1020.5 |
| 20260503185203 | 79 | 159 | 0.9 | 2.6 | 0.00 | 0.00 | 0.00 | 39 | 1020.5 |
| 20260503184203 | 79 | 192 | 2.6 | 5.2 | 0.00 | 0.00 | 0.00 | 38 | 1020.7 |
| 20260503183705 | 79 | 150 | 0.9 | 1.7 | 0.00 | 0.00 | 0.00 | 37 | 1020.7 |
| 20260503172703 | 76 | 158 | 0.9 | 6.1 | 0.00 | 0.00 | 0.00 | 48 | 1021.9 |
| 20260503172203 | 76 | 180 | 2.6 | 6.1 | 0.00 | 0.00 | 0.00 | 48 | 1022.0 |
| 20260503171704 | 76 | 189 | 0.9 | 5.2 | 0.00 | 0.00 | 0.00 | 49 | 1022.1 |
| 20260503171203 | 76 | 79 | 1.7 | 4.3 | 0.00 | 0.00 | 0.00 | 51 | 1022.2 |
| 20260503170204 | 76 | 185 | 1.7 | 4.3 | 0.00 | 0.00 | 0.00 | 48 | 1022.3 |
| 20260503160203 | 73 | 177 | 0.0 | 1.7 | 0.00 | 0.00 | 0.00 | 53 | 1022.8 |
| 20260503150703 | 68 | 201 | 0.0 | 0.9 | 0.00 | 0.00 | 0.00 | 68 | 1022.6 |
| 20260503140204 | 58 | 4 | 0.0 | 0.0 | 0.00 | 0.00 | 0.00 | 95 | 1022.5 |
| 20260503130704 | 54 | 4 | 0.0 | 0.0 | 0.00 | 0.00 | 0.00 | 96 | 1022.2 |
| 20260503120204 | 51 | 4 | 0.0 | 0.0 | 0.00 | 0.00 | 0.00 | 95 | 1021.6 |
| 20260503110204 | 51 | 4 | 0.0 | 0.0 | 0.00 | 0.00 | 0.00 | 94 | 1021.3 |
| 20260503100204 | 52 | 4 | 0.0 | 0.0 | 0.00 | 0.00 | 0.00 | 94 | 1020.9 |
| 20260503081204 | 53 | 4 | 0.0 | 0.0 | 0.00 | 0.00 | 0.00 | 93 | 1020.7 |
| 20260503080704 | 53 | 4 | 0.0 | 0.0 | 0.00 | 0.00 | 0.00 | 92 | 1020.7 |
| 20260503080204 | 54 | 4 | 0.0 | 0.0 | 0.00 | 0.00 | 0.00 | 92 | 1020.7 |
| 20260503072703 | 54 | 4 | 0.0 | 0.0 | 0.00 | 0.00 | 0.00 | 92 | 1021.0 |
| 20260503072204 | 55 | 4 | 0.0 | 0.0 | 0.00 | 0.00 | 0.00 | 92 | 1020.9 |
| 20260503071703 | 55 | 4 | 0.0 | 0.0 | 0.00 | 0.00 | 0.00 | 92 | 1021.0 |
| 20260503060203 | 56 | 4 | 0.0 | 0.0 | 0.00 | 0.00 | 0.00 | 91 | 1021.2 |
| 20260503054703 | 56 | 4 | 0.0 | 0.0 | 0.00 | 0.00 | 0.00 | 91 | 1021.3 |
| 20260503054203 | 56 | 4 | 0.0 | 0.0 | 0.00 | 0.00 | 0.00 | 90 | 1021.3 |
| 20260503053704 | 56 | 4 | 0.0 | 0.0 | 0.00 | 0.00 | 0.00 | 90 | 1021.2 |
| 20260503053203 | 56 | 4 | 0.0 | 0.0 | 0.00 | 0.00 | 0.00 | 90 | 1021.2 |
| 20260503052203 | 57 | 4 | 0.0 | 0.0 | 0.00 | 0.00 | 0.00 | 90 | 1021.3 |
| 20260503051704 | 57 | 4 | 0.0 | 0.0 | 0.00 | 0.00 | 0.00 | 90 | 1021.3 |
| 20260503051204 | 57 | 4 | 0.0 | 0.0 | 0.00 | 0.00 | 0.00 | 90 | 1021.3 |